Location: El Gallo
(32.4380°N, 116.9347°W)
Time: 20:02:07
(UTC+00:00)

Cosmos 1378 - Pass Details

Date: 01 October 2022
Orbit: 475 x 485 km, 82.5° (Epoch: 01 December)

Event Time Altitude Azimuth Distance (km) Brightness Sun altitude
Exits shadow 11:28:42 12° 131° (SE) 1,522 5.9 -28.7°
Maximum altitude 11:30:53 19° 90° (E) 1,185 5.7 -28.2°
Drops below altitude 10° 11:33:30 10° 43° (NE) 1,651 6.4 -27.7°
Enters shadow 12:46:27 -34° 195° (SSW) 7,931 9.1 -12.5°
